📊 Raw Sensor Data

Showing records 37801 to 37825 of 84,919 total

ID Distance (ft) Battery V Battery A Int Temp (°F) Int Humid (%) Ext Temp (°F) Solar V RSSI SNR Time Stamp
47131 15.4 3.81 0 92 42 82 5.10 -72 8 07/23/2025 02:45 PM
47130 15.4 3.81 0 92 41 83 5.10 -71 7 07/23/2025 02:30 PM
47129 15.3 3.81 0 90 41 80 5.10 -70 7 07/23/2025 02:15 PM
47128 15.3 3.81 0 89 41 80 5.10 -72 7 07/23/2025 02:00 PM
47127 15.4 3.81 0 85 42 78 5.10 -71 7 07/23/2025 01:30 PM
47126 15.2 3.81 0 83 43 76 5.10 -71 8 07/23/2025 01:15 PM
47125 15.4 3.81 0 81 43 77 5.10 -69 8 07/23/2025 12:45 PM
47124 15.4 3.99 0 80 43 76 5.10 -71 7 07/23/2025 12:30 PM
47123 15.4 3.81 0 79 43 72 5.10 -70 8 07/23/2025 12:15 PM
47122 15.4 3.81 0 78 43 78 5.10 -73 8 07/23/2025 12:00 PM
47121 15.4 3.81 0 77 43 78 5.10 -71 7 07/23/2025 11:45 AM
47120 15.3 3.81 0 75 43 74 5.10 -71 8 07/23/2025 11:30 AM
47119 15.3 3.81 0 74 44 76 5.10 -70 7 07/23/2025 11:15 AM
47118 15.7 3.81 0 74 43 68 5.10 -70 7 07/23/2025 11:00 AM
47117 15.4 3.81 0 74 43 71 5.10 -73 8 07/23/2025 10:45 AM
47116 15.4 3.81 0 73 43 73 5.10 -72 7 07/23/2025 10:30 AM
47115 15.4 3.81 0 72 43 73 5.10 -71 7 07/23/2025 10:15 AM
47114 15.4 3.86 0 72 43 70 5.10 -71 7 07/23/2025 10:00 AM
47113 15.4 3.81 0 71 43 69 5.10 -72 7 07/23/2025 09:45 AM
47112 15.4 3.81 0 70 44 72 5.10 -72 8 07/23/2025 09:30 AM
47111 15.4 4.08 0 68 44 67 5.10 -73 8 07/23/2025 09:15 AM
47110 15.3 3.81 0 68 44 68 5.10 -74 8 07/23/2025 09:00 AM
47109 15.4 4.08 0 67 44 68 5.10 -72 7 07/23/2025 08:45 AM
47108 15.4 3.81 0 67 44 66 5.10 -73 7 07/23/2025 08:30 AM
47107 15.4 3.82 0 67 43 67 5.10 -70 8 07/23/2025 08:15 AM